Time,TemperatureF,DewpointF,PressureIn,WindDirection,WindDirectionDegrees,WindSpeedMPH,WindSpeedGustMPH,Humidity,HourlyPrecipIn,Conditions,Clouds,dailyrainin,SoftwareType,DateUTC
2013-02-14 00:00:00,29.1,19.5,29.74,NNW,338,0.0,0.0,67,0.00,,OVC,0.00,VWS V14.01,2013-02-14 05:00:00,
2013-02-14 00:01:00,29.1,19.5,29.74,NNW,338,0.0,0.0,67,0.00,,OVC,0.00,VWS V14.01,2013-02-14 05:01:00,
2013-02-14 00:06:00,29.1,19.5,29.74,NNW,338,0.0,0.0,67,0.00,,OVC,0.00,VWS V14.01,2013-02-14 05:06:00,
2013-02-14 00:11:00,29.1,19.5,29.74,NNW,338,0.0,0.0,67,0.00,,OVC,0.00,VWS V14.01,2013-02-14 05:11:00,
2013-02-14 00:16:00,29.1,19.5,29.74,NNW,338,0.0,0.0,67,0.00,,OVC,0.00,VWS V14.01,2013-02-14 05:16:00,
2013-02-14 00:21:00,29.1,19.5,29.74,NNW,338,0.0,0.0,67,0.00,,OVC,0.00,VWS V14.01,2013-02-14 05:21:00,
2013-02-14 00:26:00,29.1,19.5,29.74,NNW,338,0.0,0.0,67,0.00,,OVC,0.00,VWS V14.01,2013-02-14 05:26:00,
2013-02-14 00:30:00,29.1,19.5,29.74,NNW,338,0.0,0.0,67,0.00,,OVC,0.00,VWS V14.01,2013-02-14 05:30:00,
2013-02-14 00:31:00,29.1,19.5,29.74,NNW,338,0.0,0.0,67,0.00,,OVC,0.00,VWS V14.01,2013-02-14 05:31:00,
2013-02-14 00:36:00,30.6,18.7,29.74,NNW,338,0.0,0.0,61,0.00,,OVC,0.00,VWS V14.01,2013-02-14 05:36:00,
2013-02-14 00:41:00,30.6,18.7,29.74,NNW,338,0.0,0.0,61,0.00,,OVC,0.00,VWS V14.01,2013-02-14 05:41:00,
2013-02-14 00:46:00,30.6,18.7,29.74,NNW,338,0.0,0.0,61,0.00,,OVC,0.00,VWS V14.01,2013-02-14 05:46:00,
2013-02-14 00:51:00,30.6,18.7,29.71,NNW,338,0.0,0.0,61,0.00,,OVC,0.00,VWS V14.01,2013-02-14 05:51:00,
2013-02-14 00:56:00,30.6,18.7,29.71,NNW,338,0.0,0.0,61,0.00,,OVC,0.00,VWS V14.01,2013-02-14 05:56:00,
2013-02-14 01:00:00,30.6,18.7,29.71,NNW,338,0.0,0.0,61,0.00,,OVC,0.00,VWS V14.01,2013-02-14 06:00:00,
2013-02-14 01:01:00,30.6,18.7,29.71,NNW,338,0.0,0.0,61,0.00,,OVC,0.00,VWS V14.01,2013-02-14 06:01:00,
2013-02-14 01:06:00,30.6,18.7,29.71,NNW,338,0.0,0.0,61,0.00,,OVC,0.00,VWS V14.01,2013-02-14 06:06:00,
2013-02-14 01:11:00,30.6,18.7,29.71,NNW,338,0.0,0.0,61,0.00,,OVC,0.00,VWS V14.01,2013-02-14 06:11:00,
2013-02-14 01:16:00,30.6,18.7,29.71,NNW,338,0.0,0.0,61,0.00,,OVC,0.00,VWS V14.01,2013-02-14 06:16:00,
2013-02-14 01:21:00,30.6,18.7,29.71,NNW,338,0.0,0.0,61,0.00,,OVC,0.00,VWS V14.01,2013-02-14 06:21:00,
2013-02-14 01:26:00,31.5,15.9,29.71,NNW,338,0.0,0.0,52,0.00,,OVC,0.00,VWS V14.01,2013-02-14 06:26:00,
2013-02-14 01:30:00,31.5,15.9,29.71,NNW,338,0.0,0.0,52,0.00,,OVC,0.00,VWS V14.01,2013-02-14 06:30:00,
2013-02-14 01:31:00,31.5,16.3,29.71,NNW,338,0.0,0.0,53,0.00,,OVC,0.00,VWS V14.01,2013-02-14 06:31:00,
2013-02-14 01:36:00,31.5,16.3,29.68,NNW,338,0.0,0.0,53,0.00,,OVC,0.00,VWS V14.01,2013-02-14 06:36:00,
2013-02-14 01:41:00,31.3,16.1,29.68,NNW,338,0.0,0.0,53,0.00,,OVC,0.00,VWS V14.01,2013-02-14 06:41:00,
2013-02-14 01:46:00,31.3,16.1,29.68,NNW,338,0.0,0.0,53,0.00,,OVC,0.00,VWS V14.01,2013-02-14 06:46:00,
2013-02-14 01:51:00,31.3,16.1,29.68,NNW,338,0.0,0.0,53,0.00,,OVC,0.00,VWS V14.01,2013-02-14 06:51:00,
2013-02-14 01:56:00,31.3,16.1,29.68,NNW,338,0.0,0.0,53,0.00,,OVC,0.00,VWS V14.01,2013-02-14 06:56:00,
2013-02-14 02:00:00,31.3,16.1,29.68,NNW,338,0.0,0.0,53,0.00,,OVC,0.00,VWS V14.01,2013-02-14 07:00:00,
2013-02-14 02:01:00,31.3,16.1,29.68,NNW,338,0.0,0.0,53,0.00,,OVC,0.00,VWS V14.01,2013-02-14 07:01:00,
2013-02-14 02:06:00,31.3,16.1,29.71,NNW,338,0.0,0.0,53,0.00,,OVC,0.00,VWS V14.01,2013-02-14 07:06:00,
2013-02-14 02:11:00,31.3,16.1,29.71,NNW,338,0.0,0.0,53,0.00,,OVC,0.00,VWS V14.01,2013-02-14 07:11:00,
2013-02-14 02:16:00,31.3,16.1,29.71,NNW,338,0.0,0.0,53,0.00,,OVC,0.00,VWS V14.01,2013-02-14 07:16:00,
2013-02-14 02:21:00,31.3,16.1,29.74,NNW,338,0.0,0.0,53,0.00,,OVC,0.00,VWS V14.01,2013-02-14 07:21:00,
2013-02-14 02:26:00,31.3,16.1,29.74,NNW,338,0.0,0.0,53,0.00,,OVC,0.00,VWS V14.01,2013-02-14 07:26:00,
2013-02-14 02:30:00,31.3,16.1,29.74,NNW,338,0.0,0.0,53,0.00,,OVC,0.00,VWS V14.01,2013-02-14 07:30:00,
2013-02-14 02:31:00,31.3,16.1,29.74,NNW,338,0.0,0.0,53,0.00,,OVC,0.00,VWS V14.01,2013-02-14 07:31:00,
2013-02-14 02:36:00,31.3,16.1,29.74,NNW,338,0.0,0.0,53,0.00,,OVC,0.00,VWS V14.01,2013-02-14 07:36:00,
2013-02-14 02:41:00,31.3,16.1,29.74,NNW,338,0.0,0.0,53,0.00,,OVC,0.00,VWS V14.01,2013-02-14 07:41:00,
2013-02-14 02:46:00,31.3,16.1,29.74,NNW,338,0.0,0.0,53,0.00,,OVC,0.00,VWS V14.01,2013-02-14 07:46:00,
2013-02-14 02:51:00,31.3,16.1,29.74,NNW,338,0.0,0.0,53,0.00,,OVC,0.00,VWS V14.01,2013-02-14 07:51:00,
2013-02-14 02:56:00,31.3,16.1,29.74,NNW,338,0.0,0.0,53,0.00,,OVC,0.00,VWS V14.01,2013-02-14 07:56:00,
2013-02-14 03:00:00,31.3,16.1,29.74,NNW,338,0.0,0.0,53,0.00,,OVC,0.00,VWS V14.01,2013-02-14 08:00:00,
2013-02-14 03:01:00,31.3,16.1,29.74,NNW,338,0.0,0.0,53,0.00,,OVC,0.00,VWS V14.01,2013-02-14 08:01:00,
2013-02-14 03:06:00,31.3,16.1,29.74,NNW,338,0.0,0.0,53,0.00,,OVC,0.00,VWS V14.01,2013-02-14 08:06:00,
2013-02-14 03:11:00,31.3,16.1,29.74,NNW,338,0.0,0.0,53,0.00,,OVC,0.00,VWS V14.01,2013-02-14 08:11:00,
2013-02-14 03:16:00,31.3,16.1,29.74,NNW,338,0.0,0.0,53,0.00,,OVC,0.00,VWS V14.01,2013-02-14 08:16:00,
2013-02-14 03:21:00,31.3,16.1,29.74,NNW,338,0.0,0.0,53,0.00,,OVC,0.00,VWS V14.01,2013-02-14 08:21:00,
2013-02-14 03:26:00,31.3,16.1,29.74,NNW,338,0.0,0.0,53,0.00,,OVC,0.00,VWS V14.01,2013-02-14 08:26:00,
2013-02-14 03:30:00,31.3,16.1,29.74,NNW,338,0.0,0.0,53,0.00,,OVC,0.00,VWS V14.01,2013-02-14 08:30:00,
2013-02-14 03:31:00,31.3,16.1,29.74,NNW,338,0.0,0.0,53,0.00,,OVC,0.00,VWS V14.01,2013-02-14 08:31:00,
2013-02-14 03:36:00,31.3,16.1,29.74,NNW,338,0.0,0.0,53,0.00,,OVC,0.00,VWS V14.01,2013-02-14 08:36:00,
2013-02-14 03:41:00,31.3,16.1,29.74,NNW,338,0.0,0.0,53,0.00,,OVC,0.00,VWS V14.01,2013-02-14 08:41:00,
2013-02-14 03:46:00,30.0,15.8,29.74,NNW,338,2.0,2.0,55,0.00,,OVC,0.00,VWS V14.01,2013-02-14 08:46:00,
2013-02-14 03:51:00,30.0,15.8,29.74,NNW,338,2.0,2.0,55,0.00,,OVC,0.00,VWS V14.01,2013-02-14 08:51:00,
2013-02-14 03:56:00,30.0,15.8,29.74,NNW,338,2.0,2.0,55,0.00,,OVC,0.00,VWS V14.01,2013-02-14 08:56:00,
2013-02-14 04:00:00,30.0,15.8,29.74,NNW,338,2.0,2.0,55,0.00,,OVC,0.00,VWS V14.01,2013-02-14 09:00:00,
2013-02-14 04:01:00,30.0,15.8,29.74,NNW,338,2.0,2.0,55,0.00,,OVC,0.00,VWS V14.01,2013-02-14 09:01:00,
2013-02-14 04:07:00,30.0,15.8,29.74,NNW,338,2.0,2.0,55,0.00,,OVC,0.00,VWS V14.01,2013-02-14 09:07:00,
2013-02-14 04:12:00,30.0,15.8,29.74,NNW,338,2.0,2.0,55,0.00,,OVC,0.00,VWS V14.01,2013-02-14 09:12:00,
2013-02-14 04:17:00,30.0,15.8,29.74,NNW,338,2.0,2.0,55,0.00,,OVC,0.00,VWS V14.01,2013-02-14 09:17:00,
2013-02-14 04:22:00,30.0,15.8,29.74,NNW,338,2.0,2.0,55,0.00,,OVC,0.00,VWS V14.01,2013-02-14 09:22:00,
2013-02-14 04:27:00,30.0,15.8,29.74,NNW,338,2.0,2.0,55,0.00,,OVC,0.00,VWS V14.01,2013-02-14 09:27:00,
2013-02-14 04:30:00,29.5,15.7,29.74,NNW,338,2.0,2.0,56,0.00,,OVC,0.00,VWS V14.01,2013-02-14 09:30:00,
2013-02-14 04:32:00,29.5,15.7,29.74,NNW,338,2.0,2.0,56,0.00,,OVC,0.00,VWS V14.01,2013-02-14 09:32:00,
2013-02-14 04:37:00,29.5,15.7,29.74,NNW,338,2.0,2.0,56,0.00,,OVC,0.00,VWS V14.01,2013-02-14 09:37:00,
2013-02-14 04:42:00,29.5,15.7,29.74,NNW,338,3.4,3.4,56,0.00,,OVC,0.00,VWS V14.01,2013-02-14 09:42:00,
2013-02-14 04:47:00,29.5,15.7,29.74,NNW,338,3.4,3.4,56,0.00,,OVC,0.00,VWS V14.01,2013-02-14 09:47:00,
2013-02-14 04:52:00,29.5,15.7,29.76,NNW,338,3.4,3.4,56,0.00,,OVC,0.00,VWS V14.01,2013-02-14 09:52:00,
2013-02-14 04:57:00,29.5,15.7,29.76,NNW,338,3.4,3.4,56,0.00,,OVC,0.00,VWS V14.01,2013-02-14 09:57:00,
2013-02-14 05:00:00,29.5,15.7,29.76,NNW,338,3.4,3.4,56,0.00,,OVC,0.00,VWS V14.01,2013-02-14 10:00:00,
2013-02-14 05:02:00,29.5,15.7,29.76,NNW,338,3.4,3.4,56,0.00,,OVC,0.00,VWS V14.01,2013-02-14 10:02:00,
2013-02-14 05:07:00,29.5,15.7,29.74,NNW,338,3.4,3.4,56,0.00,,OVC,0.00,VWS V14.01,2013-02-14 10:07:00,
2013-02-14 05:12:00,29.5,15.7,29.74,NNW,338,3.4,3.4,56,0.00,,OVC,0.00,VWS V14.01,2013-02-14 10:12:00,
2013-02-14 05:17:00,29.5,15.7,29.74,NNW,338,3.4,3.4,56,0.00,,OVC,0.00,VWS V14.01,2013-02-14 10:17:00,
2013-02-14 05:22:00,29.5,15.7,29.74,NNW,338,3.4,3.4,56,0.00,,OVC,0.00,VWS V14.01,2013-02-14 10:22:00,
2013-02-14 05:27:00,29.5,15.7,29.74,NNW,338,2.9,2.9,56,0.00,,OVC,0.00,VWS V14.01,2013-02-14 10:27:00,
2013-02-14 05:30:00,29.5,15.7,29.74,NNW,338,2.9,2.9,56,0.00,,OVC,0.00,VWS V14.01,2013-02-14 10:30:00,
2013-02-14 05:32:00,29.5,15.7,29.74,NNW,338,2.9,2.9,56,0.00,,OVC,0.00,VWS V14.01,2013-02-14 10:32:00,
2013-02-14 05:37:00,29.5,15.7,29.76,NNW,338,2.9,2.9,56,0.00,,OVC,0.00,VWS V14.01,2013-02-14 10:37:00,
2013-02-14 05:42:00,29.5,15.7,29.76,NNW,338,2.9,2.9,56,0.00,,OVC,0.00,VWS V14.01,2013-02-14 10:42:00,
2013-02-14 05:47:00,29.5,15.7,29.76,NNW,338,2.9,2.9,56,0.00,,OVC,0.00,VWS V14.01,2013-02-14 10:47:00,
2013-02-14 05:52:00,29.5,15.7,29.76,NNW,338,2.9,2.9,56,0.00,,OVC,0.00,VWS V14.01,2013-02-14 10:52:00,
2013-02-14 05:57:00,29.5,15.7,29.76,NNW,338,2.9,2.9,56,0.00,,OVC,0.00,VWS V14.01,2013-02-14 10:57:00,
2013-02-14 06:00:00,29.5,15.7,29.76,NNW,338,2.9,2.9,56,0.00,,OVC,0.00,VWS V14.01,2013-02-14 11:00:00,
2013-02-14 06:02:00,29.5,15.7,29.76,NNW,338,2.9,2.9,56,0.00,,OVC,0.00,VWS V14.01,2013-02-14 11:02:00,
2013-02-14 06:07:00,29.5,15.7,29.76,NNW,338,2.9,2.9,56,0.00,,OVC,0.00,VWS V14.01,2013-02-14 11:07:00,
2013-02-14 06:12:00,29.5,15.7,29.76,NNW,338,2.9,2.9,56,0.00,,OVC,0.00,VWS V14.01,2013-02-14 11:12:00,
2013-02-14 06:17:00,29.5,15.7,29.76,NNW,338,2.9,2.9,56,0.00,,OVC,0.00,VWS V14.01,2013-02-14 11:17:00,
2013-02-14 06:22:00,29.5,15.7,29.76,NNW,338,2.9,2.9,56,0.00,,OVC,0.00,VWS V14.01,2013-02-14 11:22:00,
2013-02-14 06:27:00,29.5,15.7,29.76,NNW,338,2.9,2.9,56,0.00,,OVC,0.00,VWS V14.01,2013-02-14 11:27:00,
2013-02-14 06:30:00,29.5,15.7,29.76,NNW,338,2.9,2.9,56,0.00,,OVC,0.00,VWS V14.01,2013-02-14 11:30:00,
2013-02-14 06:32:00,29.5,15.7,29.76,NNW,338,2.9,2.9,56,0.00,,OVC,0.00,VWS V14.01,2013-02-14 11:32:00,
2013-02-14 06:37:00,29.5,15.7,29.76,NNW,338,2.9,2.9,56,0.00,,OVC,0.00,VWS V14.01,2013-02-14 11:37:00,
2013-02-14 06:42:00,29.5,15.7,29.76,NNW,338,2.9,2.9,56,0.00,,OVC,0.00,VWS V14.01,2013-02-14 11:42:00,
2013-02-14 06:47:00,29.5,15.7,29.76,NNW,338,2.9,2.9,56,0.00,,OVC,0.00,VWS V14.01,2013-02-14 11:47:00,
2013-02-14 06:52:00,29.5,15.7,29.76,NNW,338,2.9,2.9,56,0.00,,OVC,0.00,VWS V14.01,2013-02-14 11:52:00,
2013-02-14 06:57:00,29.5,15.7,29.76,NNW,338,2.9,2.9,56,0.00,,OVC,0.00,VWS V14.01,2013-02-14 11:57:00,
2013-02-14 07:00:00,29.5,15.7,29.76,NNW,338,2.9,2.9,56,0.00,,OVC,0.00,VWS V14.01,2013-02-14 12:00:00,
2013-02-14 07:02:00,29.5,15.7,29.76,NNW,338,2.9,2.9,56,0.00,,OVC,0.00,VWS V14.01,2013-02-14 12:02:00,
2013-02-14 07:07:00,29.5,15.7,29.76,NNW,338,2.9,2.9,56,0.00,,OVC,0.00,VWS V14.01,2013-02-14 12:07:00,
2013-02-14 07:12:00,26.8,14.4,29.76,NNW,338,3.4,3.6,59,0.00,,OVC,0.00,VWS V14.01,2013-02-14 12:12:00,
2013-02-14 07:17:00,27.0,14.6,29.76,NNW,338,3.4,3.4,59,0.00,,OVC,0.00,VWS V14.01,2013-02-14 12:17:00,
2013-02-14 07:22:00,27.0,14.6,29.76,NNW,338,3.1,3.4,59,0.00,,OVC,0.00,VWS V14.01,2013-02-14 12:22:00,
2013-02-14 07:27:00,27.9,15.0,29.76,NNW,338,3.4,3.4,58,0.00,,OVC,0.00,VWS V14.01,2013-02-14 12:27:00,
2013-02-14 07:30:00,27.9,15.0,29.76,NNW,338,3.4,3.4,58,0.00,,OVC,0.00,VWS V14.01,2013-02-14 12:30:00,
2013-02-14 07:32:00,27.9,15.0,29.76,NNW,338,3.4,3.4,58,0.00,,OVC,0.00,VWS V14.01,2013-02-14 12:32:00,
2013-02-14 07:37:00,28.9,14.8,29.79,NNW,338,3.4,3.4,55,0.00,,OVC,0.00,VWS V14.01,2013-02-14 12:37:00,
2013-02-14 07:42:00,28.9,14.8,29.79,NNW,338,3.4,3.4,55,0.00,,OVC,0.00,VWS V14.01,2013-02-14 12:42:00,
2013-02-14 07:47:00,28.9,14.8,29.79,NNW,338,3.4,3.4,55,0.00,,OVC,0.00,VWS V14.01,2013-02-14 12:47:00,
2013-02-14 07:52:00,28.9,14.8,29.79,NNW,338,4.0,4.0,55,0.00,,OVC,0.00,VWS V14.01,2013-02-14 12:52:00,
2013-02-14 07:57:00,28.9,14.8,29.79,NNW,338,4.0,6.0,55,0.00,,OVC,0.00,VWS V14.01,2013-02-14 12:57:00,
2013-02-14 08:00:00,28.9,14.8,29.80,NNW,338,4.0,4.0,55,0.00,,OVC,0.00,VWS V14.01,2013-02-14 13:00:00,
2013-02-14 08:02:00,28.9,14.8,29.79,NW,315,4.0,4.0,55,0.00,,OVC,0.00,VWS V14.01,2013-02-14 13:02:00,
2013-02-14 08:07:00,30.9,14.5,29.79,NNW,338,2.7,4.0,50,0.00,,OVC,0.00,VWS V14.01,2013-02-14 13:07:00,
2013-02-14 08:12:00,30.9,14.5,29.79,NW,315,4.9,4.9,50,0.00,,OVC,0.00,VWS V14.01,2013-02-14 13:12:00,
2013-02-14 08:17:00,30.9,14.5,29.79,NNW,338,6.0,6.0,50,0.00,,OVC,0.00,VWS V14.01,2013-02-14 13:17:00,
2013-02-14 08:22:00,30.9,14.5,29.76,NNW,338,2.9,2.9,50,0.00,,OVC,0.00,VWS V14.01,2013-02-14 13:22:00,
2013-02-14 08:27:00,30.9,14.5,29.76,NNW,338,2.9,2.9,50,0.00,,OVC,0.00,VWS V14.01,2013-02-14 13:27:00,
2013-02-14 08:30:00,30.9,14.5,29.76,NNW,338,2.9,2.9,50,0.00,,OVC,0.00,VWS V14.01,2013-02-14 13:30:00,
2013-02-14 08:32:00,31.1,14.2,29.76,NNW,338,3.4,4.7,49,0.00,,OVC,0.00,VWS V14.01,2013-02-14 13:32:00,
2013-02-14 08:37:00,31.3,13.9,29.79,NNW,338,4.3,4.3,48,0.00,,OVC,0.00,VWS V14.01,2013-02-14 13:37:00,
2013-02-14 08:42:00,32.2,14.7,29.79,NNW,338,4.3,4.3,48,0.00,,OVC,0.00,VWS V14.01,2013-02-14 13:42:00,
2013-02-14 08:47:00,32.2,14.7,29.79,NNW,338,4.3,4.3,48,0.00,,OVC,0.00,VWS V14.01,2013-02-14 13:47:00,
2013-02-14 08:52:00,32.5,14.6,29.79,NNW,338,4.3,4.3,47,0.00,,OVC,0.00,VWS V14.01,2013-02-14 13:52:00,
2013-02-14 08:57:00,32.5,14.1,29.79,NW,315,6.3,6.3,46,0.00,,OVC,0.00,VWS V14.01,2013-02-14 13:57:00,
2013-02-14 09:00:00,32.5,14.1,29.80,NW,315,6.3,6.3,46,0.00,,OVC,0.00,VWS V14.01,2013-02-14 14:00:00,
2013-02-14 09:02:00,32.4,14.4,29.79,NNW,338,4.3,4.3,47,0.00,,OVC,0.00,VWS V14.01,2013-02-14 14:02:00,
2013-02-14 09:07:00,33.1,14.6,29.79,NNW,338,4.3,4.3,46,0.00,,OVC,0.00,VWS V14.01,2013-02-14 14:07:00,
2013-02-14 09:12:00,34.2,15.1,29.79,NNW,338,3.6,3.6,45,0.00,,OVC,0.00,VWS V14.01,2013-02-14 14:12:00,
2013-02-14 09:17:00,34.0,13.9,29.79,NNW,338,3.6,3.6,43,0.00,,OVC,0.00,VWS V14.01,2013-02-14 14:17:00,
2013-02-14 09:22:00,37.0,17.2,29.79,NNW,338,1.6,1.6,44,0.00,,OVC,0.00,VWS V14.01,2013-02-14 14:22:00,
2013-02-14 09:27:00,39.2,17.5,29.79,NNW,338,3.8,3.8,41,0.00,,OVC,0.00,VWS V14.01,2013-02-14 14:27:00,
2013-02-14 09:30:00,39.2,17.5,29.80,NNW,338,3.8,3.8,41,0.00,,OVC,0.00,VWS V14.01,2013-02-14 14:30:00,
2013-02-14 09:32:00,39.9,16.4,29.79,East,90,3.6,5.4,38,0.00,,OVC,0.00,VWS V14.01,2013-02-14 14:32:00,
2013-02-14 09:37:00,41.2,16.3,29.79,NNW,338,5.4,5.4,36,0.00,,OVC,0.00,VWS V14.01,2013-02-14 14:37:00,
2013-02-14 09:42:00,42.3,16.6,29.79,North,0,4.9,4.9,35,0.00,,OVC,0.00,VWS V14.01,2013-02-14 14:42:00,
2013-02-14 09:47:00,43.0,15.2,29.79,NNW,338,2.7,4.3,32,0.00,,OVC,0.00,VWS V14.01,2013-02-14 14:47:00,
2013-02-14 09:52:00,42.6,14.8,29.76,SE,135,1.3,2.9,32,0.00,,OVC,0.00,VWS V14.01,2013-02-14 14:52:00,
2013-02-14 09:57:00,44.4,15.7,29.76,NW,315,4.0,4.0,31,0.00,,OVC,0.00,VWS V14.01,2013-02-14 14:57:00,
2013-02-14 10:00:00,44.8,16.0,29.76,NNW,338,2.5,4.0,31,0.00,,OVC,0.00,VWS V14.01,2013-02-14 15:00:00,
2013-02-14 10:02:00,46.0,17.1,29.76,NNW,338,1.1,2.9,31,0.00,,OVC,0.00,VWS V14.01,2013-02-14 15:02:00,
2013-02-14 10:07:00,44.8,14.5,29.79,NNE,22,3.4,4.3,29,0.00,,OVC,0.00,VWS V14.01,2013-02-14 15:07:00,
2013-02-14 10:12:00,42.1,12.1,29.79,North,0,6.3,12.3,29,0.00,,OVC,0.00,VWS V14.01,2013-02-14 15:12:00,
2013-02-14 10:17:00,40.6,11.6,29.79,NNW,338,6.0,9.2,30,0.00,,OVC,0.00,VWS V14.01,2013-02-14 15:17:00,
2013-02-14 10:22:00,39.9,11.0,29.79,NNW,338,5.6,8.1,30,0.00,,OVC,0.00,VWS V14.01,2013-02-14 15:22:00,
2013-02-14 10:27:00,39.9,11.0,29.79,NNW,338,11.4,11.4,30,0.00,,OVC,0.00,VWS V14.01,2013-02-14 15:27:00,
2013-02-14 10:30:00,40.1,10.4,29.80,NNW,338,5.6,11.4,29,0.00,,OVC,0.00,VWS V14.01,2013-02-14 15:30:00,
2013-02-14 10:32:00,39.9,11.0,29.79,NNW,338,7.4,9.0,30,0.00,,OVC,0.00,VWS V14.01,2013-02-14 15:32:00,
2013-02-14 10:37:00,39.2,10.4,29.82,NW,315,12.3,12.3,30,0.00,,OVC,0.00,VWS V14.01,2013-02-14 15:37:00,
2013-02-14 10:42:00,39.2,10.4,29.82,NW,315,9.8,9.8,30,0.00,,OVC,0.00,VWS V14.01,2013-02-14 15:42:00,
2013-02-14 10:47:00,39.0,11.0,29.82,NNW,338,8.1,12.5,31,0.00,,OVC,0.00,VWS V14.01,2013-02-14 15:47:00,
2013-02-14 10:52:00,41.0,12.0,29.82,WNW,292,6.5,6.5,30,0.00,,OVC,0.00,VWS V14.01,2013-02-14 15:52:00,
2013-02-14 10:57:00,40.5,11.5,29.82,NNW,338,10.7,10.7,30,0.00,,OVC,0.00,VWS V14.01,2013-02-14 15:57:00,
2013-02-14 11:00:00,40.6,11.6,29.82,NNW,338,10.7,10.7,30,0.00,,OVC,0.00,VWS V14.01,2013-02-14 16:00:00,
2013-02-14 11:02:00,40.6,10.9,29.82,NW,315,6.3,9.8,29,0.00,,OVC,0.00,VWS V14.01,2013-02-14 16:02:00,
2013-02-14 11:07:00,39.9,10.2,29.82,NNW,338,10.7,10.7,29,0.00,,OVC,0.00,VWS V14.01,2013-02-14 16:07:00,
2013-02-14 11:12:00,40.6,10.9,29.82,WNW,292,10.1,10.1,29,0.00,,OVC,0.00,VWS V14.01,2013-02-14 16:12:00,
2013-02-14 11:17:00,41.0,11.2,29.82,NW,315,11.0,11.0,29,0.00,,OVC,0.00,VWS V14.01,2013-02-14 16:17:00,
2013-02-14 11:22:00,41.7,11.8,29.82,North,0,9.8,9.8,29,0.00,,OVC,0.00,VWS V14.01,2013-02-14 16:22:00,
2013-02-14 11:27:00,43.0,12.1,29.82,NNW,338,5.8,10.7,28,0.00,,OVC,0.00,VWS V14.01,2013-02-14 16:27:00,
2013-02-14 11:30:00,43.9,12.9,29.82,NNW,338,5.8,10.7,28,0.00,,OVC,0.00,VWS V14.01,2013-02-14 16:30:00,
2013-02-14 11:32:00,43.5,12.6,29.82,NNW,338,5.6,9.6,28,0.00,,OVC,0.00,VWS V14.01,2013-02-14 16:32:00,
2013-02-14 11:37:00,42.1,11.3,29.79,North,0,6.3,6.3,28,0.00,,OVC,0.00,VWS V14.01,2013-02-14 16:37:00,
2013-02-14 11:42:00,40.5,10.7,29.79,NW,315,5.4,7.6,29,0.00,,OVC,0.00,VWS V14.01,2013-02-14 16:42:00,
2013-02-14 11:47:00,43.3,12.4,29.79,NNW,338,4.3,5.4,28,0.00,,OVC,0.00,VWS V14.01,2013-02-14 16:47:00,
2013-02-14 11:52:00,43.5,12.6,29.82,NNW,338,8.7,8.7,28,0.00,,OVC,0.00,VWS V14.01,2013-02-14 16:52:00,
2013-02-14 11:57:00,44.1,13.1,29.82,NNW,338,8.5,11.9,28,0.00,,OVC,0.00,VWS V14.01,2013-02-14 16:57:00,
2013-02-14 12:00:00,44.1,13.1,29.82,NW,315,3.4,11.9,28,0.00,,OVC,0.00,VWS V14.01,2013-02-14 17:00:00,
2013-02-14 12:02:00,45.3,13.3,29.82,NNW,338,1.6,3.8,27,0.00,,OVC,0.00,VWS V14.01,2013-02-14 17:02:00,
2013-02-14 12:07:00,42.4,11.7,29.82,NNW,338,10.1,10.7,28,0.00,,OVC,0.00,VWS V14.01,2013-02-14 17:07:00,
2013-02-14 12:12:00,42.3,11.5,29.82,NNW,338,5.8,10.5,28,0.00,,OVC,0.00,VWS V14.01,2013-02-14 17:12:00,
2013-02-14 12:17:00,43.0,12.1,29.82,NNW,338,6.5,6.5,28,0.00,,OVC,0.00,VWS V14.01,2013-02-14 17:17:00,
2013-02-14 12:22:00,43.0,12.1,29.82,NNW,338,10.5,10.5,28,0.00,,OVC,0.00,VWS V14.01,2013-02-14 17:22:00,
2013-02-14 12:27:00,43.3,12.4,29.82,NNW,338,12.5,12.5,28,0.00,,OVC,0.00,VWS V14.01,2013-02-14 17:27:00,
2013-02-14 12:30:00,42.8,12.0,29.82,NNW,338,12.5,12.5,28,0.00,,OVC,0.00,VWS V14.01,2013-02-14 17:30:00,
2013-02-14 12:32:00,42.1,11.3,29.82,NW,315,12.3,12.3,28,0.00,,OVC,0.00,VWS V14.01,2013-02-14 17:32:00,
2013-02-14 12:37:00,43.0,12.1,29.82,NW,315,12.3,12.3,28,0.00,,OVC,0.00,VWS V14.01,2013-02-14 17:37:00,
2013-02-14 12:42:00,43.0,12.1,29.82,North,0,13.0,13.0,28,0.00,,OVC,0.00,VWS V14.01,2013-02-14 17:42:00,
2013-02-14 12:47:00,42.8,12.0,29.82,North,0,13.0,13.0,28,0.00,,OVC,0.00,VWS V14.01,2013-02-14 17:47:00,
2013-02-14 12:52:00,43.2,12.3,29.82,NNW,338,7.8,7.8,28,0.00,,OVC,0.00,VWS V14.01,2013-02-14 17:52:00,
2013-02-14 12:57:00,43.2,9.7,29.82,North,0,5.8,5.8,25,0.00,,OVC,0.00,VWS V14.01,2013-02-14 17:57:00,
2013-02-14 13:00:00,43.2,9.7,29.82,North,0,5.8,5.8,25,0.00,,OVC,0.00,VWS V14.01,2013-02-14 18:00:00,
2013-02-14 13:02:00,43.2,12.3,29.82,NW,315,7.6,7.6,28,0.00,,OVC,0.00,VWS V14.01,2013-02-14 18:02:00,
2013-02-14 13:07:00,41.9,11.2,29.82,NNW,338,9.8,9.8,28,0.00,,OVC,0.00,VWS V14.01,2013-02-14 18:07:00,
2013-02-14 13:12:00,41.0,10.4,29.82,NNW,338,6.5,10.1,28,0.00,,OVC,0.00,VWS V14.01,2013-02-14 18:12:00,
2013-02-14 13:17:00,40.8,10.2,29.82,NW,315,3.4,3.4,28,0.00,,OVC,0.00,VWS V14.01,2013-02-14 18:17:00,
2013-02-14 13:22:00,40.5,9.9,29.82,WNW,292,9.0,9.0,28,0.00,,OVC,0.00,VWS V14.01,2013-02-14 18:22:00,
2013-02-14 13:27:00,40.1,9.6,29.82,NNW,338,10.7,10.7,28,0.00,,OVC,0.00,VWS V14.01,2013-02-14 18:27:00,
2013-02-14 13:30:00,39.9,9.5,29.82,NNW,338,10.7,10.7,28,0.00,,OVC,0.00,VWS V14.01,2013-02-14 18:30:00,
2013-02-14 13:32:00,39.6,9.2,29.82,NW,315,8.7,12.8,28,0.00,,OVC,0.00,VWS V14.01,2013-02-14 18:32:00,
2013-02-14 13:37:00,39.4,9.8,29.82,NNW,338,6.7,6.7,29,0.00,,OVC,0.00,VWS V14.01,2013-02-14 18:37:00,
2013-02-14 13:42:00,39.7,10.1,29.82,NNW,338,5.6,5.8,29,0.00,,OVC,0.00,VWS V14.01,2013-02-14 18:42:00,
2013-02-14 13:48:00,38.5,9.0,29.82,NNW,338,11.0,12.8,29,0.00,,OVC,0.00,VWS V14.01,2013-02-14 18:48:00,
2013-02-14 13:53:00,38.7,9.2,29.82,NW,315,5.4,5.4,29,0.00,,OVC,0.00,VWS V14.01,2013-02-14 18:53:00,
2013-02-14 13:58:00,39.0,9.5,29.82,NNW,338,8.1,8.1,29,0.00,,OVC,0.00,VWS V14.01,2013-02-14 18:58:00,
2013-02-14 14:00:00,39.0,9.5,29.82,NNW,338,8.1,8.1,29,0.00,,OVC,0.00,VWS V14.01,2013-02-14 19:00:00,
2013-02-14 14:03:00,38.8,9.3,29.82,NW,315,9.6,9.6,29,0.00,,OVC,0.00,VWS V14.01,2013-02-14 19:03:00,
2013-02-14 14:08:00,38.7,9.2,29.85,NNW,338,6.3,7.8,29,0.00,,OVC,0.00,VWS V14.01,2013-02-14 19:08:00,
2013-02-14 14:13:00,39.0,9.5,29.85,WNW,292,5.8,7.8,29,0.00,,OVC,0.00,VWS V14.01,2013-02-14 19:13:00,
2013-02-14 14:18:00,38.7,9.2,29.85,NW,315,4.9,4.9,29,0.00,,OVC,0.00,VWS V14.01,2013-02-14 19:18:00,
2013-02-14 14:23:00,38.7,9.2,29.82,NW,315,5.4,8.1,29,0.00,,OVC,0.00,VWS V14.01,2013-02-14 19:23:00,
2013-02-14 14:28:00,38.5,9.0,29.82,NW,315,7.4,8.7,29,0.00,,OVC,0.00,VWS V14.01,2013-02-14 19:28:00,
2013-02-14 14:30:00,38.5,9.0,29.82,NW,315,7.4,8.7,29,0.00,,OVC,0.00,VWS V14.01,2013-02-14 19:30:00,
2013-02-14 14:33:00,38.5,9.8,29.82,NNW,338,7.6,7.6,30,0.00,,OVC,0.00,VWS V14.01,2013-02-14 19:33:00,
2013-02-14 14:38:00,38.8,9.3,29.85,North,0,6.0,6.5,29,0.00,,OVC,0.00,VWS V14.01,2013-02-14 19:38:00,
2013-02-14 14:43:00,38.7,9.2,29.85,NW,315,8.1,8.1,29,0.00,,OVC,0.00,VWS V14.01,2013-02-14 19:43:00,
2013-02-14 14:48:00,38.5,9.0,29.85,NW,315,6.5,6.5,29,0.00,,OVC,0.00,VWS V14.01,2013-02-14 19:48:00,
2013-02-14 14:53:00,38.8,9.3,29.85,NNW,338,5.4,6.5,29,0.00,,OVC,0.00,VWS V14.01,2013-02-14 19:53:00,
2013-02-14 14:58:00,39.2,9.6,29.85,NNW,338,6.3,8.5,29,0.00,,OVC,0.00,VWS V14.01,2013-02-14 19:58:00,
2013-02-14 15:00:00,39.2,9.6,29.85,NNW,338,6.3,8.5,29,0.00,,OVC,0.00,VWS V14.01,2013-02-14 20:00:00,
2013-02-14 15:03:00,39.2,9.6,29.85,NNW,338,4.9,4.9,29,0.00,,OVC,0.00,VWS V14.01,2013-02-14 20:03:00,
2013-02-14 15:08:00,39.2,9.6,29.85,NNW,338,4.0,6.3,29,0.00,,OVC,0.00,VWS V14.01,2013-02-14 20:08:00,
2013-02-14 15:13:00,39.2,9.6,29.85,NNW,338,2.7,3.6,29,0.00,,OVC,0.00,VWS V14.01,2013-02-14 20:13:00,
2013-02-14 15:18:00,39.7,10.1,29.85,NNW,338,2.0,4.0,29,0.00,,OVC,0.00,VWS V14.01,2013-02-14 20:18:00,
2013-02-14 15:23:00,39.7,10.1,29.85,SSE,158,2.0,4.7,29,0.00,,OVC,0.00,VWS V14.01,2013-02-14 20:23:00,
2013-02-14 15:28:00,39.9,10.2,29.85,NNW,338,3.8,4.3,29,0.00,,OVC,0.00,VWS V14.01,2013-02-14 20:28:00,
2013-02-14 15:30:00,39.9,10.3,29.85,NNW,338,3.8,4.3,29,0.00,,OVC,0.00,VWS V14.01,2013-02-14 20:30:00,
2013-02-14 15:33:00,39.4,9.8,29.85,NNW,338,3.6,7.8,29,0.00,,OVC,0.00,VWS V14.01,2013-02-14 20:33:00,
2013-02-14 15:38:00,39.2,9.6,29.85,NNW,338,4.0,5.6,29,0.00,,OVC,0.00,VWS V14.01,2013-02-14 20:38:00,
2013-02-14 15:43:00,38.8,9.3,29.85,NW,315,7.2,7.2,29,0.00,,OVC,0.00,VWS V14.01,2013-02-14 20:43:00,
2013-02-14 15:48:00,38.5,9.0,29.85,NW,315,4.0,4.0,29,0.00,,OVC,0.00,VWS V14.01,2013-02-14 20:48:00,
2013-02-14 15:53:00,38.3,8.8,29.82,NNW,338,1.6,1.6,29,0.00,,OVC,0.00,VWS V14.01,2013-02-14 20:53:00,
2013-02-14 15:58:00,38.1,8.7,29.82,WNW,292,3.8,4.3,29,0.00,,OVC,0.00,VWS V14.01,2013-02-14 20:58:00,
2013-02-14 16:00:00,38.1,8.7,29.82,WNW,292,3.8,4.3,29,0.00,,OVC,0.00,VWS V14.01,2013-02-14 21:00:00,
2013-02-14 16:03:00,37.9,8.5,29.82,NNW,338,3.6,4.3,29,0.00,,OVC,0.00,VWS V14.01,2013-02-14 21:03:00,
2013-02-14 16:08:00,37.6,8.2,29.85,North,0,5.6,6.0,29,0.00,,OVC,0.00,VWS V14.01,2013-02-14 21:08:00,
2013-02-14 16:13:00,37.2,8.6,29.85,NNW,338,3.1,5.8,30,0.00,,OVC,0.00,VWS V14.01,2013-02-14 21:13:00,
2013-02-14 16:18:00,37.0,8.5,29.85,WNW,292,4.0,5.8,30,0.00,,OVC,0.00,VWS V14.01,2013-02-14 21:18:00,
2013-02-14 16:23:00,36.9,8.3,29.82,NNW,338,3.1,3.8,30,0.00,,OVC,0.00,VWS V14.01,2013-02-14 21:23:00,
2013-02-14 16:28:00,36.7,8.2,29.82,WNW,292,6.0,6.0,30,0.00,,OVC,0.00,VWS V14.01,2013-02-14 21:28:00,
2013-02-14 16:30:00,36.7,8.2,29.82,NW,315,3.8,3.8,30,0.00,,OVC,0.00,VWS V14.01,2013-02-14 21:30:00,
2013-02-14 16:33:00,36.1,7.7,29.82,WNW,292,6.0,6.0,30,0.00,,OVC,0.00,VWS V14.01,2013-02-14 21:33:00,
2013-02-14 16:38:00,36.0,7.6,29.85,WNW,292,6.0,6.0,30,0.00,,OVC,0.00,VWS V14.01,2013-02-14 21:38:00,
2013-02-14 16:43:00,35.6,8.0,29.85,WNW,292,6.0,6.0,31,0.00,,OVC,0.00,VWS V14.01,2013-02-14 21:43:00,
2013-02-14 16:48:00,35.2,7.7,29.88,WNW,292,6.0,6.0,31,0.00,,OVC,0.00,VWS V14.01,2013-02-14 21:48:00,
2013-02-14 16:53:00,35.1,7.5,29.88,WNW,292,6.0,6.0,31,0.00,,OVC,0.00,VWS V14.01,2013-02-14 21:53:00,
2013-02-14 16:58:00,34.9,8.0,29.88,WNW,292,6.0,6.0,32,0.00,,OVC,0.00,VWS V14.01,2013-02-14 21:58:00,
2013-02-14 17:00:00,34.9,8.0,29.88,WNW,292,6.0,6.0,32,0.00,,OVC,0.00,VWS V14.01,2013-02-14 22:00:00,
2013-02-14 17:03:00,34.7,7.9,29.88,WNW,292,6.0,6.0,32,0.00,,OVC,0.00,VWS V14.01,2013-02-14 22:03:00,
2013-02-14 17:08:00,34.3,7.6,29.88,WNW,292,6.0,6.0,32,0.00,,OVC,0.00,VWS V14.01,2013-02-14 22:08:00,
2013-02-14 17:13:00,33.6,7.6,29.88,WNW,292,6.0,6.0,33,0.00,,OVC,0.00,VWS V14.01,2013-02-14 22:13:00,
2013-02-14 17:18:00,33.3,7.3,29.91,NW,315,0.0,0.0,33,0.00,,OVC,0.00,VWS V14.01,2013-02-14 22:18:00,
2013-02-14 17:23:00,32.4,7.1,29.91,NW,315,0.0,0.0,34,0.00,,OVC,0.00,VWS V14.01,2013-02-14 22:23:00,
2013-02-14 17:28:00,30.9,6.5,29.91,NW,315,0.0,0.0,35,0.00,,OVC,0.00,VWS V14.01,2013-02-14 22:28:00,
2013-02-14 17:30:00,31.1,6.7,29.91,NW,315,0.0,0.0,35,0.00,,OVC,0.00,VWS V14.01,2013-02-14 22:30:00,
2013-02-14 17:33:00,30.2,6.5,29.91,NW,315,0.0,0.0,36,0.00,,OVC,0.00,VWS V14.01,2013-02-14 22:33:00,
2013-02-14 17:38:00,29.7,6.6,29.91,NW,315,0.0,0.0,37,0.00,,OVC,0.00,VWS V14.01,2013-02-14 22:38:00,
2013-02-14 17:43:00,28.9,7.7,29.91,NW,315,0.0,0.0,40,0.00,,OVC,0.00,VWS V14.01,2013-02-14 22:43:00,
2013-02-14 17:48:00,28.2,7.6,29.91,NW,315,0.0,0.0,41,0.00,,OVC,0.00,VWS V14.01,2013-02-14 22:48:00,
2013-02-14 17:53:00,27.5,6.9,29.91,NW,315,0.0,0.0,41,0.00,,OVC,0.00,VWS V14.01,2013-02-14 22:53:00,
2013-02-14 17:58:00,27.0,6.4,29.91,NW,315,0.0,0.0,41,0.00,,OVC,0.00,VWS V14.01,2013-02-14 22:58:00,
2013-02-14 18:00:00,27.1,6.6,29.91,NW,315,0.0,0.0,41,0.00,,OVC,0.00,VWS V14.01,2013-02-14 23:00:00,
2013-02-14 18:03:00,26.4,6.4,29.88,NW,315,0.0,0.0,42,0.00,,OVC,0.00,VWS V14.01,2013-02-14 23:03:00,
2013-02-14 18:08:00,25.7,5.8,29.88,NW,315,0.0,0.0,42,0.00,,OVC,0.00,VWS V14.01,2013-02-14 23:08:00,
2013-02-14 18:13:00,25.5,6.2,29.88,NW,315,0.0,0.0,43,0.00,,OVC,0.00,VWS V14.01,2013-02-14 23:13:00,
2013-02-14 18:18:00,25.2,5.8,29.91,NW,315,0.0,0.0,43,0.00,,OVC,0.00,VWS V14.01,2013-02-14 23:18:00,
2013-02-14 18:23:00,24.8,6.0,29.91,NW,315,0.0,0.0,44,0.00,,OVC,0.00,VWS V14.01,2013-02-14 23:23:00,
2013-02-14 18:28:00,24.4,6.2,29.91,NW,315,0.0,0.0,45,0.00,,OVC,0.00,VWS V14.01,2013-02-14 23:28:00,
2013-02-14 18:30:00,24.4,6.2,29.91,NW,315,0.0,0.0,45,0.00,,OVC,0.00,VWS V14.01,2013-02-14 23:30:00,
2013-02-14 18:33:00,23.9,5.7,29.91,NW,315,0.0,0.0,45,0.00,,OVC,0.00,VWS V14.01,2013-02-14 23:33:00,
2013-02-14 18:38:00,23.5,6.3,29.91,NW,315,0.0,0.0,47,0.00,,OVC,0.00,VWS V14.01,2013-02-14 23:38:00,
2013-02-14 18:43:00,23.2,7.3,29.91,NW,315,0.0,0.0,50,0.00,,OVC,0.00,VWS V14.01,2013-02-14 23:43:00,
2013-02-14 18:48:00,23.2,7.3,29.94,NW,315,0.0,0.0,50,0.00,,OVC,0.00,VWS V14.01,2013-02-14 23:48:00,
2013-02-14 18:53:00,23.2,6.4,29.94,NW,315,0.0,0.0,48,0.00,,OVC,0.00,VWS V14.01,2013-02-14 23:53:00,
2013-02-14 18:58:00,22.8,6.5,29.94,NW,315,0.0,0.0,49,0.00,,OVC,0.00,VWS V14.01,2013-02-14 23:58:00,
2013-02-14 19:00:00,22.8,6.5,29.94,NW,315,0.0,0.0,49,0.00,,OVC,0.00,VWS V14.01,2013-02-15 00:00:00,
2013-02-14 19:03:00,22.8,7.0,29.97,NW,315,0.0,0.0,50,0.00,,OVC,0.00,VWS V14.01,2013-02-15 00:03:00,
2013-02-14 19:08:00,22.6,7.2,29.97,NW,315,1.3,1.3,51,0.00,,OVC,0.00,VWS V14.01,2013-02-15 00:08:00,
2013-02-14 19:13:00,22.5,7.9,29.97,NW,315,1.3,1.3,53,0.00,,OVC,0.00,VWS V14.01,2013-02-15 00:13:00,
2013-02-14 19:18:00,22.5,7.5,29.97,NW,315,0.9,0.9,52,0.00,,OVC,0.00,VWS V14.01,2013-02-15 00:18:00,
2013-02-14 19:23:00,21.7,7.7,29.97,NW,315,2.0,2.0,54,0.00,,OVC,0.00,VWS V14.01,2013-02-15 00:23:00,
2013-02-14 19:28:00,21.6,7.5,29.97,NW,315,1.3,2.0,54,0.00,,OVC,0.00,VWS V14.01,2013-02-15 00:28:00,
2013-02-14 19:30:00,21.7,8.1,29.97,NW,315,2.0,2.0,55,0.00,,OVC,0.00,VWS V14.01,2013-02-15 00:30:00,
2013-02-14 19:33:00,21.4,7.7,29.97,NW,315,1.1,1.3,55,0.00,,OVC,0.00,VWS V14.01,2013-02-15 00:33:00,
2013-02-14 19:38:00,21.2,8.0,29.97,NW,315,1.1,1.1,56,0.00,,OVC,0.00,VWS V14.01,2013-02-15 00:38:00,
2013-02-14 19:43:00,21.0,8.2,29.97,NW,315,0.0,0.0,57,0.00,,OVC,0.00,VWS V14.01,2013-02-15 00:43:00,
2013-02-14 19:48:00,20.7,8.6,29.97,NW,315,0.0,0.0,59,0.00,,OVC,0.00,VWS V14.01,2013-02-15 00:48:00,
2013-02-14 19:53:00,20.3,9.4,29.97,NW,315,2.0,2.5,62,0.00,,OVC,0.00,VWS V14.01,2013-02-15 00:53:00,
2013-02-14 19:58:00,20.7,10.4,29.97,NW,315,2.5,2.5,64,0.00,,OVC,0.00,VWS V14.01,2013-02-15 00:58:00,
2013-02-14 20:00:00,20.5,9.9,29.97,NW,315,2.5,2.5,63,0.00,,OVC,0.00,VWS V14.01,2013-02-15 01:00:00,
2013-02-14 20:03:00,20.7,11.1,29.97,NW,315,2.5,2.5,66,0.00,,OVC,0.00,VWS V14.01,2013-02-15 01:03:00,
2013-02-14 20:08:00,20.7,10.8,29.97,NW,315,2.5,2.5,65,0.00,,OVC,0.00,VWS V14.01,2013-02-15 01:08:00,
2013-02-14 20:13:00,20.7,9.7,29.97,NW,315,2.5,2.5,62,0.00,,OVC,0.00,VWS V14.01,2013-02-15 01:13:00,
2013-02-14 20:18:00,20.3,8.6,29.97,NW,315,2.5,2.5,60,0.00,,OVC,0.00,VWS V14.01,2013-02-15 01:18:00,
2013-02-14 20:23:00,19.8,8.1,29.97,NW,315,2.5,2.5,60,0.00,,OVC,0.00,VWS V14.01,2013-02-15 01:23:00,
2013-02-14 20:28:00,19.9,9.7,29.97,NW,315,2.5,2.5,64,0.00,,OVC,0.00,VWS V14.01,2013-02-15 01:28:00,
2013-02-14 20:30:00,19.8,9.2,29.97,NW,315,2.5,2.5,63,0.00,,OVC,0.00,VWS V14.01,2013-02-15 01:30:00,
2013-02-14 20:33:00,20.1,10.6,29.97,NW,315,2.5,2.5,66,0.00,,OVC,0.00,VWS V14.01,2013-02-15 01:33:00,
2013-02-14 20:38:00,19.8,9.2,29.97,NW,315,2.5,2.5,63,0.00,,OVC,0.00,VWS V14.01,2013-02-15 01:38:00,
2013-02-14 20:43:00,19.6,8.7,29.97,NW,315,2.5,2.5,62,0.00,,OVC,0.00,VWS V14.01,2013-02-15 01:43:00,
2013-02-14 20:48:00,19.8,10.3,29.97,NW,315,2.5,2.5,66,0.00,,OVC,0.00,VWS V14.01,2013-02-15 01:48:00,
2013-02-14 20:53:00,20.3,11.8,29.97,NW,315,2.5,2.5,69,0.00,,OVC,0.00,VWS V14.01,2013-02-15 01:53:00,
2013-02-14 20:58:00,20.1,12.2,29.97,NW,315,2.5,2.5,71,0.00,,OVC,0.00,VWS V14.01,2013-02-15 01:58:00,
2013-02-14 21:00:00,20.1,12.2,29.97,NW,315,2.5,2.5,71,0.00,,OVC,0.00,VWS V14.01,2013-02-15 02:00:00,
2013-02-14 21:04:00,19.8,11.2,29.97,NW,315,2.5,2.5,69,0.00,,OVC,0.00,VWS V14.01,2013-02-15 02:04:00,
2013-02-14 21:08:00,19.0,10.2,29.97,NW,315,2.5,2.5,68,0.00,,OVC,0.00,VWS V14.01,2013-02-15 02:08:00,
2013-02-14 21:13:00,18.7,10.5,29.97,NW,315,2.5,2.5,70,0.00,,OVC,0.00,VWS V14.01,2013-02-15 02:13:00,
2013-02-14 21:18:00,18.5,10.4,29.97,NW,315,2.5,2.5,70,0.00,,OVC,0.00,VWS V14.01,2013-02-15 02:18:00,
2013-02-14 21:24:00,18.7,10.9,29.97,NW,315,2.5,2.5,71,0.00,,OVC,0.00,VWS V14.01,2013-02-15 02:24:00,
2013-02-14 21:29:00,18.9,11.0,29.97,NW,315,2.5,2.5,71,0.00,,OVC,0.00,VWS V14.01,2013-02-15 02:29:00,
2013-02-14 21:30:00,18.9,11.0,29.97,NW,315,2.5,2.5,71,0.00,,OVC,0.00,VWS V14.01,2013-02-15 02:30:00,
2013-02-14 21:34:00,19.4,11.6,29.97,NW,315,2.5,2.5,71,0.00,,OVC,0.00,VWS V14.01,2013-02-15 02:34:00,
2013-02-14 21:39:00,19.2,10.7,29.97,NW,315,2.5,2.5,69,0.00,,OVC,0.00,VWS V14.01,2013-02-15 02:39:00,
2013-02-14 21:44:00,19.0,10.6,29.97,NW,315,2.5,2.5,69,0.00,,OVC,0.00,VWS V14.01,2013-02-15 02:44:00,
2013-02-14 21:49:00,19.0,10.9,29.97,NW,315,2.5,2.5,70,0.00,,OVC,0.00,VWS V14.01,2013-02-15 02:49:00,
2013-02-14 21:54:00,19.0,10.9,29.97,NW,315,2.5,2.5,70,0.00,,OVC,0.00,VWS V14.01,2013-02-15 02:54:00,
2013-02-14 21:59:00,19.2,11.1,29.97,NW,315,2.5,2.5,70,0.00,,OVC,0.00,VWS V14.01,2013-02-15 02:59:00,
2013-02-14 22:00:00,19.2,11.1,29.97,NW,315,2.5,2.5,70,0.00,,OVC,0.00,VWS V14.01,2013-02-15 03:00:00,
2013-02-14 22:04:00,19.2,11.1,29.97,NW,315,2.5,2.5,70,0.00,,OVC,0.00,VWS V14.01,2013-02-15 03:04:00,
2013-02-14 22:09:00,19.4,11.2,29.97,NW,315,2.5,2.5,70,0.00,,OVC,0.00,VWS V14.01,2013-02-15 03:09:00,
2013-02-14 22:14:00,19.4,10.9,29.97,NW,315,2.5,2.5,69,0.00,,OVC,0.00,VWS V14.01,2013-02-15 03:14:00,
2013-02-14 22:19:00,19.6,11.1,29.97,NW,315,2.5,2.5,69,0.00,,OVC,0.00,VWS V14.01,2013-02-15 03:19:00,
2013-02-14 22:24:00,19.2,10.7,29.97,NW,315,2.5,2.5,69,0.00,,OVC,0.00,VWS V14.01,2013-02-15 03:24:00,
2013-02-14 22:29:00,19.0,10.9,29.97,NW,315,2.5,2.5,70,0.00,,OVC,0.00,VWS V14.01,2013-02-15 03:29:00,
2013-02-14 22:30:00,19.0,10.6,29.97,NW,315,2.5,2.5,69,0.00,,OVC,0.00,VWS V14.01,2013-02-15 03:30:00,
2013-02-14 22:34:00,18.7,10.2,29.97,NW,315,2.5,2.5,69,0.00,,OVC,0.00,VWS V14.01,2013-02-15 03:34:00,
2013-02-14 22:39:00,19.6,12.4,29.97,NW,315,2.5,2.5,73,0.00,,OVC,0.00,VWS V14.01,2013-02-15 03:39:00,
2013-02-14 22:44:00,19.6,12.4,29.97,NW,315,2.5,2.5,73,0.00,,OVC,0.00,VWS V14.01,2013-02-15 03:44:00,
2013-02-14 22:49:00,19.2,12.0,29.97,NW,315,2.5,2.5,73,0.00,,OVC,0.00,VWS V14.01,2013-02-15 03:49:00,
2013-02-14 22:54:00,18.5,11.0,29.97,NW,315,2.5,2.5,72,0.00,,OVC,0.00,VWS V14.01,2013-02-15 03:54:00,
2013-02-14 22:59:00,18.7,11.5,29.97,NW,315,2.5,2.5,73,0.00,,OVC,0.00,VWS V14.01,2013-02-15 03:59:00,
2013-02-14 23:00:00,18.7,11.2,29.97,NW,315,2.5,2.5,72,0.00,,OVC,0.00,VWS V14.01,2013-02-15 04:00:00,
2013-02-14 23:04:00,18.9,12.0,29.97,NW,315,2.5,2.5,74,0.00,,OVC,0.00,VWS V14.01,2013-02-15 04:04:00,
2013-02-14 23:09:00,18.9,12.3,29.97,NW,315,2.5,2.5,75,0.00,,OVC,0.00,VWS V14.01,2013-02-15 04:09:00,
2013-02-14 23:14:00,18.5,11.9,29.97,NW,315,2.5,2.5,75,0.00,,OVC,0.00,VWS V14.01,2013-02-15 04:14:00,
2013-02-14 23:19:00,18.1,11.3,29.97,NW,315,2.5,2.5,74,0.00,,OVC,0.00,VWS V14.01,2013-02-15 04:19:00,
2013-02-14 23:24:00,17.4,10.3,29.97,NW,315,2.5,2.5,73,0.00,,OVC,0.00,VWS V14.01,2013-02-15 04:24:00,
2013-02-14 23:29:00,17.1,9.6,29.97,NW,315,2.5,2.5,72,0.00,,OVC,0.00,VWS V14.01,2013-02-15 04:29:00,
2013-02-14 23:30:00,17.1,9.9,29.97,NW,315,2.5,2.5,73,0.00,,OVC,0.00,VWS V14.01,2013-02-15 04:30:00,
2013-02-14 23:34:00,16.9,9.7,29.94,NW,315,2.5,2.5,73,0.00,,OVC,0.00,VWS V14.01,2013-02-15 04:34:00,
2013-02-14 23:39:00,16.5,9.4,29.94,NW,315,2.5,2.5,73,0.00,,OVC,0.00,VWS V14.01,2013-02-15 04:39:00,
2013-02-14 23:44:00,16.5,9.4,29.94,NW,315,2.5,2.5,73,0.00,,OVC,0.00,VWS V14.01,2013-02-15 04:44:00,
2013-02-14 23:49:00,16.0,9.2,29.97,NW,315,2.5,2.5,74,0.00,,OVC,0.00,VWS V14.01,2013-02-15 04:49:00,
2013-02-14 23:54:00,16.0,9.2,29.97,NW,315,2.5,2.5,74,0.00,,OVC,0.00,VWS V14.01,2013-02-15 04:54:00,
2013-02-14 23:59:00,15.8,9.3,29.97,NW,315,2.5,2.5,75,0.00,,OVC,0.00,VWS V14.01,2013-02-15 04:59:00,